User: anonymous   Login
Location: Suzhou
(31.3110°N, 120.6180°E)
Time: 01:19:02
(UTC+08:00)
Language:

RS-15 - Orbit

View from above orbital plane
View from above orbital plane
View from above satellite
View from above satellite

Ground track
Ground track

The orbit data is extracted from the following two-line orbital elements,

1 23439U 94085A   24147.20748110 -.00000021  00000-0  59870-3 0  9994
2 23439  64.8178  79.3120 0150534 147.9501 213.0684 11.27576980211402
Epoch (UTC): 26 May 2024 04:58:46
Eccentricity: 0.0150534
inclination: 64.8178°
perigee height: 1896 km
apogee height: 2149 km
right ascension of ascending node: 79.3120°
argument of perigee: 147.9501°
revolutions per day: 11.27576980
mean anomaly at epoch: 213.0684°
orbit number at epoch: 21140

The dashed part of the orbit path shows where the satellite is in the earth's shadow,  

DLR